Weather in Mendeleevo

Russia / Moscow Oblast     56°02′09″N   37°13′51″E
temp.,
°C
wind,
m/s
gust,
m/s
humid.,
%
clouds,
%
prec.,
mm/h
press.,
hPa
HPBL,
m
7 march, sun
sun700:00−11sw489120 0.0 1011182
03:00−9ssw6138653 0.0 1007558
06:00−7sw71493100 1.1 1002950
09:00−5sw81593100 2.1 9971066
12:00−3sw91593100 1.8 9941147
15:00−3wnw71369100 3.6 9931420
18:00−7wsw367567 0.1 99497
21:00−6w5109266 1.0 995684
8 march, mon
mon800:00−8wsw4128697 0.1 995630
03:00−9wsw4119395 0.1 994363
06:00−9wsw5129393 0.0 994466
09:00−9wnw6118896 0.4 996899
12:00−6nw6880100 0.3 9991090
15:00−6nnw6881100 0.4 10021093
18:00−9nnw4989100 0.2 1005581
21:00−11nnw499299 0.3 1008429
9 march, tue
tue900:00−14nnw389590 0.0 1011280
03:00−16nnw379794 0.1 1013173
06:00−18nw359989 0.0 1015127
09:00−17nnw359490 0.0 1017263
12:00−14nnw358399 0.0 1018548
15:00−12nw4678100 0.0 1019772
18:00−15nnw2488100 0.0 101977
21:00−19n239674 0.0 102235
10 march, wed
wed1000:00−22n229737 0.0 102324
03:00−24n229819 0.0 102420
06:00−25n23980 0.0 102529
09:00−22nne34930 0.0 1027227
12:00−18ne33768 0.0 1027475
15:00−15ne23694 0.0 1027682
18:00−18nne238638 0.0 102829
21:00−20ene239262 0.0 102926
11 march, thu
thu1100:00−21ese229397 0.0 102922
03:00−23se229069 0.0 103023
06:00−24se239149 0.0 102928
09:00−21se368434 0.0 1029185
12:00−15se48780 0.0 1028347
15:00−12se510750 0.0 1025530
18:00−14se510840 0.0 1023376
21:00−17sse5119526 0.0 1022338